RH
14 13 12 11 10 10 8 7 6 6 5 5 5 6 9 12 17 22 26 29 29 26 27 29 35 37 39 41 43 47 50 50 52 50 40 37 47 51 51 41 43 45 47 45 45
13 13 13 12 12 10 9 8 6 5 5 4 5 5 6 9 12 17 25 29 28 27 26 31 35 38 40 40 39 42 41 35 38 34 31 40 51 51 51 45 44 46 46 50 46
13 13 12 12 11 10 10 8 7 6 5 5 4 4 4 6 8 14 19 28 27 25 27 31 35 38 39 35 34 39 35 35 37 31 30 40 46 52 50 43 40 41 44 51 50
13 12 11 11 10 10 9 9 8 7 6 5 4 4 3 4 7 11 17 22 25 23 26 32 34 33 36 35 34 38 35 34 38 34 32 37 40 43 43 43 40 36 40 47 52
14 13 12 11 10 10 9 9 9 8 7 6 5 4 3 3 5 11 13 16 21 24 28 34 36 38 39 37 36 38 36 35 36 35 35 39 44 40 49 53 44 41 38 40 47
17 15 13 12 11 10 9 9 10 9 7 6 5 5 4 4 3 9 10 13 16 21 26 33 38 40 42 38 37 36 34 33 36 37 40 42 44 42 51 47 47 46 48 41 49
18 17 15 13 12 10 9 9 10 9 8 7 6 5 4 3 4 7 9 10 13 16 23 31 34 34 34 37 37 34 33 31 37 39 41 43 43 48 44 41 40 47 44 45 47
19 18 16 14 12 10 9 9 10 10 9 7 6 5 4 3 5 6 7 9 10 13 20 27 27 28 30 36 37 32 31 35 35 40 41 38 48 47 42 42 41 50 57 47 44
22 19 17 16 13 10 9 8 9 9 9 7 7 7 5 3 4 5 6 7 10 12 15 22 24 25 29 37 34 36 42 39 38 39 38 40 52 46 42 46 47 51 61 48 41
25 21 18 17 14 11 9 10 14 13 13 10 7 8 6 7 5 4 5 5 6 12 13 16 21 20 28 34 37 36 39 38 38 37 37 37 41 42 43 47 49 51 57 51 44
28 24 18 17 15 12 10 12 15 14 14 12 10 8 7 8 7 6 4 4 5 9 12 15 19 19 27 29 33 37 41 40 40 38 38 38 42 45 42 45 47 51 46 58 48
29 29 21 17 16 13 14 15 17 18 14 11 11 9 8 9 9 6 5 4 5 7 11 14 16 17 26 28 33 37 40 41 41 38 36 36 35 37 42 44 47 52 48 53 56
28 31 28 20 16 14 20 19 18 17 15 9 8 8 8 9 9 7 6 5 5 7 9 12 12 13 19 29 28 36 42 47 43 40 37 36 33 38 44 46 49 51 42 43 51
24 33 32 23 18 20 21 20 19 18 19 16 10 8 8 9 9 6 6 6 6 5 8 10 11 12 22 29 32 36 39 42 44 40 41 35 35 37 42 46 48 50 40 45 45
17 20 31 29 23 23 21 22 18 18 24 16 16 14 11 10 9 8 6 7 7 6 7 10 9 14 19 26 29 34 38 40 42 41 38 36 35 35 39 49 48 45 38 41 37
17 15 23 29 25 24 22 20 19 23 24 17 17 19 18 15 10 9 8 7 8 8 8 8 11 15 17 23 30 33 37 37 41 40 44 40 40 38 40 40 46 40 38 41 41
17 15 19 28 26 23 19 22 25 30 23 24 23 20 18 13 11 10 10 9 9 9 10 10 11 15 17 22 26 28 38 47 46 43 43 41 41 36 36 39 41 39 37 39 42
16 14 15 25 26 25 22 25 31 27 28 28 25 24 22 16 10 10 10 10 10 10 11 13 13 17 18 20 25 30 34 45 47 50 44 42 39 34 32 30 37 40 42 42 43
15 13 13 23 25 25 25 32 28 31 29 29 28 25 22 19 17 13 11 11 11 11 10 13 14 19 19 21 24 28 33 35 46 48 44 40 35 33 36 33 36 44 44 45 47
16 19 22 25 25 24 27 31 24 32 30 30 33 31 28 23 23 18 15 11 11 11 9 11 15 15 21 22 20 24 28 34 42 47 42 41 37 37 37 35 40 40 49 50 50
20 29 25 27 27 27 30 31 21 28 28 31 29 29 28 29 25 22 18 16 12 12 12 10 14 18 20 23 23 26 24 33 38 43 43 43 40 37 36 40 47 50 59 58 63
26 34 29 34 33 31 32 28 22 28 31 32 27 27 27 29 28 26 25 20 15 14 14 12 15 21 20 21 21 23 27 27 37 38 39 41 41 39 38 41 48 50 51 54 56
28 34 33 34 38 37 35 32 30 33 36 34 30 27 27 29 28 27 29 25 23 17 16 15 17 19 21 21 23 27 27 28 29 35 37 42 39 37 36 43 47 47 46 46 56
28 41 39 36 36 38 38 36 33 32 36 36 32 27 28 29 30 31 35 28 26 22 18 16 17 17 21 22 26 26 29 32 30 35 36 40 37 40 39 42 49 52 48 48 55
32 43 42 43 41 41 41 39 41 39 37 37 32 27 27 28 32 37 35 30 28 27 20 16 16 15 19 22 25 25 29 31 34 32 36 35 36 35 38 40 45 40 40 47 50
34 44 45 44 45 46 47 47 45 43 43 43 40 35 27 24 30 35 36 35 32 31 29 26 17 16 15 21 23 25 28 32 32 30 32 38 39 36 38 39 41 44 43 47 44
39 40 47 45 48 48 49 47 47 44 44 47 47 42 29 27 28 32 33 32 33 38 39 37 32 26 19 17 19 23 27 35 32 32 33 35 32 34 35 34 38 41 44 38 35